EST,Max TemperatureF,Mean TemperatureF,Min TemperatureF,Max Dew PointF,MeanDew PointF,Min DewpointF,Max Humidity, Mean Humidity, Min Humidity, Max Sea Level PressureIn, Mean Sea Level PressureIn, Min Sea Level PressureIn, Max VisibilityMiles, Mean VisibilityMiles, Min VisibilityMiles, Max Wind SpeedMPH, Mean Wind SpeedMPH, Max Gust SpeedMPH,PrecipitationIn, CloudCover, Events, WindDirDegrees
2012-11-1,59,46,32,31,24,12,75,46,17,29.99,29.94,29.90,10,10,10,17,7,22,0.00,1,,226
2012-11-2,68,55,42,39,31,24,60,41,22,30.04,29.95,29.90,10,10,10,20,6,24,0.00,3,,251
2012-11-3,69,52,35,48,36,31,89,58,26,30.13,30.03,29.94,10,10,3,25,1,39,0.01,2,Rain-Thunderstorm,18
2012-11-4,60,56,51,52,44,36,93,73,53,30.10,30.02,29.96,10,10,7,9,3,13,0.00,7,,330
2012-11-5,58,45,32,38,32,27,96,63,30,30.14,30.07,29.99,10,9,5,9,2,13,0.00,1,,33
2012-11-6,51,47,42,45,41,32,92,75,58,30.03,29.97,29.92,10,8,4,9,2,10,0.10,8,Rain,36
2012-11-7,50,47,43,45,41,37,100,86,71,30.09,29.93,29.87,10,8,4,8,3,9,0.20,8,Rain,258
2012-11-8,58,45,32,39,34,30,92,66,39,30.24,30.18,30.09,10,6,1,9,2,14,0.00,1,,32
2012-11-9,63,47,31,38,35,29,92,64,36,30.34,30.26,30.21,10,8,0,7,1,9,0.00,1,Fog,337
2012-11-10,70,53,35,41,37,33,92,60,28,30.38,30.30,30.24,10,10,7,6,0,7,0.00,0,,-1
2012-11-11,73,54,35,46,40,34,92,62,31,30.39,30.30,30.21,10,9,7,21,4,28,0.00,1,,163
2012-11-12,70,55,40,58,48,33,100,74,48,30.40,30.23,30.09,10,7,1,24,10,31,0.42,6,Rain,246
2012-11-13,50,41,31,33,29,25,89,63,36,30.46,30.41,30.38,10,10,10,15,7,20,0.00,1,,32
2012-11-14,50,40,30,34,29,25,78,60,42,30.43,30.36,30.29,10,10,10,10,3,13,0.00,1,,42
2012-11-15,58,47,35,36,33,32,92,66,39,30.34,30.27,30.22,10,10,8,9,2,10,0.00,2,,17
2012-11-16,59,45,30,35,30,23,92,59,25,30.37,30.32,30.28,10,10,8,13,5,16,0.00,0,,27
2012-11-17,61,47,32,32,28,26,78,53,27,30.47,30.40,30.36,10,10,10,12,4,14,0.00,0,,37
2012-11-18,62,46,30,32,28,24,92,59,25,30.45,30.38,30.33,10,10,10,13,4,16,0.00,0,,35
2012-11-19,63,47,31,40,35,29,89,64,39,30.36,30.29,30.21,10,10,8,9,1,12,0.00,0,,37
2012-11-20,65,51,37,41,37,36,92,64,36,30.21,30.14,30.06,10,10,9,8,1,9,0.00,3,,259
2012-11-21,66,54,41,42,39,38,82,60,37,30.19,30.15,30.09,10,10,10,10,2,13,0.00,3,,32
2012-11-22,67,51,35,42,38,34,92,65,37,30.26,30.20,30.14,10,9,5,7,1,8,0.00,0,,224
2012-11-23,62,51,39,48,39,28,85,68,51,30.17,30.11,30.04,10,10,10,22,7,25,T,3,Rain,248
2012-11-24,44,35,26,29,22,18,75,57,39,30.23,30.17,30.13,10,10,10,12,4,13,0.00,1,,322
2012-11-25,54,39,24,24,17,8,81,49,16,30.20,30.12,30.04,10,10,10,20,5,24,0.00,0,,228
2012-11-26,64,48,31,45,29,19,80,52,23,30.21,30.15,30.08,10,9,2,13,4,15,0.22,5,Rain,275
2012-11-27,48,45,41,45,42,33,93,82,70,30.30,30.19,30.11,10,6,2,13,6,16,0.11,8,Rain,5
2012-11-28,50,44,37,33,30,25,82,61,39,30.46,30.38,30.29,10,10,10,9,4,17,0.00,4,,354
2012-11-29,57,42,26,33,30,24,92,68,43,30.46,30.38,30.31,10,9,7,6,1,13,0.00,0,,38
2012-11-30,60,44,28,41,35,27,92,70,47,30.41,30.32,30.25,10,10,8,22,4,26,0.00,2,,215